sat.trackr.live / text

‹ back to catalog

STARLINK-1338

NORAD 45532 · 2020-025B

PAYLOAD ACTIVE UNKNOWN

§ Identity

Operator
Country
US
Launch date
2020-04-22
Launch site
AFETR
Launch vehicle
Mass (kg)
RCS (m²)

Purposes: comms

External: N2YO · Heavens-Above · Gunter

§ Orbital elements

Epoch: 2026-05-25T04:43:39.757152Z

Period
91.94 min
Inclination
53.0448°
Eccentricity
0.0004509
Mean motion
15.66284671 rev/d
Perigee alt
366.5 km
Apogee alt
372.6 km
Semi-major
6,747.7 km
B*
4.9065e-4
RAAN
71.3090°
Arg perigee
64.5789°
Mean anomaly
295.5692°
Rev number
33,735

§ Raw data

STARLINK-13381 45532U 20025B   26145.19698793  .00051464  00000+0  49065-3 0  99942 45532  53.0448  71.3090 0004509  64.5789 295.5692 15.66284671337357

JSON: /api/v1/satellites/45532 · /tle

For live sub-satellite position, see the globe view (requires WebGL).

§ Visibility from observer

Set your observer location to see the next 7 days of passes ≥ 10°. The values pass through the URL so the page stays shareable.

No JS? Fill the form by hand. The geolocation button needs JavaScript.